1509300000.57,25613,9.94,71252.5,-10.03,-10.75,-10.75,0,*61
1509300001.86,25614,9.94,71268.8,-10.03,-10.75,-10.71,0,*62
1509300003.16,25615,9.94,71284.8,-10.03,-10.71,-10.63,0,*64
1509300004.45,25616,9.94,71290.0,-10.03,-10.71,-10.71,0,*64
1509300005.72,25617,9.94,71294.8,-10.03,-10.71,-10.57,0,*61
1509300006.99,25618,9.94,71308.5,-10.05,-10.71,-10.63,0,*6F
1509300008.28,25619,9.94,71312.3,-10.03,-10.71,-10.63,0,*68
1509300009.58,25620,9.94,71318.3,-10.03,-10.71,-10.63,0,*62
1509300010.85,25621,9.94,71324.8,-10.05,-10.67,-10.75,0,*65
1509300012.12,25622,9.94,71322.8,-10.05,-10.79,-10.67,0,*6A
1509300013.39,25623,9.94,71326.5,-10.05,-10.75,-10.67,0,*67
1509300014.68,25624,9.94,71324.8,-10.03,-10.71,-10.63,0,*66
1509300015.98,25625,9.94,71324.8,-10.03,-10.71,-10.63,0,*67
1509300017.25,25626,9.94,71322.0,-10.05,-10.75,-10.67,0,*62
1509300018.52,25627,9.94,71326.8,-10.03,-10.63,-10.57,0,*61
1509300019.79,25628,9.94,71324.3,-10.03,-10.63,-10.57,0,*6E
1509300021.0,25629,9.94,71330.5,-10.01,-10.53,-10.57,0,*6E
1509300022.22,25630,9.94,71324.3,-10.01,-10.57,-10.57,0,*62
1509300023.43,25631,9.94,71338.3,-10.01,-10.53,-10.57,0,*67
1509300024.72,25632,9.94,71334.5,-10.03,-10.63,-10.71,0,*61
1509300026.02,25633,9.94,71324.5,-10.03,-10.71,-10.63,0,*60
1509300027.31,25634,9.94,71326.8,-10.03,-10.63,-10.71,0,*67
1509300028.58,25635,9.94,71322.5,-10.01,-10.79,-10.71,0,*6F
1509300029.85,25636,9.94,71320.0,-10.01,-10.71,-10.71,0,*64
1509300031.12,25637,9.94,71318.0,-10.01,-10.67,-10.71,0,*62
1509300032.38,25638,9.94,71322.5,-10.01,-10.79,-10.71,0,*62
1509300033.66,25639,9.94,71320.0,-10.01,-10.67,-10.71,0,*6C
1509300034.93,25640,9.94,71316.5,-10.01,-10.71,-10.67,0,*62
1509300036.22,25641,9.94,71322.5,-10.03,-10.75,-10.75,0,*66
1509300037.5,25642,9.94,71310.0,-10.01,-10.71,-10.67,0,*60
1509300038.78,25643,9.94,71310.5,-10.01,-10.71,-10.67,0,*61
1509300040.04,25644,9.94,71306.3,-10.01,-10.79,-10.71,0,*69
1509300041.32,25645,9.94,71312.0,-10.01,-10.67,-10.67,0,*60
1509300042.57,25646,9.94,71318.5,-10.01,-10.67,-10.57,0,*60
1509300043.82,25647,9.94,71324.3,-10.01,-10.67,-10.57,0,*61
1509300045.09,25648,9.94,71334.5,-10.05,-10.71,-10.63,0,*6A
1509300046.31,25649,9.94,71332.8,-10.01,-10.57,-10.57,0,*6C
1509300047.56,25650,9.94,71338.3,-10.01,-10.67,-10.57,0,*67
1509300048.77,25651,9.94,71340.3,-10.01,-10.57,-10.53,0,*61
1509300050.02,25652,9.94,71342.3,-10.01,-10.67,-10.57,0,*65
1509300051.26,25653,9.94,71336.8,-9.99,-10.57,-10.57,0,*5E
1509300052.47,25654,9.94,71328.0,-10.01,-10.57,-10.57,0,*60
1509300053.71,25655,9.94,71328.0,-9.99,-10.57,-10.53,0,*5C
1509300054.96,25656,9.94,71322.5,-10.01,-10.57,-10.67,0,*61
1509300056.23,25657,9.94,71304.5,-10.01,-10.71,-10.67,0,*64
1509300057.5,25658,9.94,71296.0,-10.01,-10.71,-10.71,0,*6C
1509300058.77,25659,9.94,71292.0,-10.01,-10.71,-10.71,0,*6D
1509300060.05,25660,9.94,71282.5,-9.99,-10.71,-10.71,0,*5E
1509300061.31,25661,9.94,71272.8,-9.99,-10.85,-10.79,0,*5C
1509300062.58,25662,9.94,71262.8,-10.01,-10.79,-10.71,0,*6D
1509300063.85,25663,9.94,71254.3,-10.01,-10.71,-10.79,0,*6C
1509300065.12,25664,9.94,71252.8,-10.01,-10.71,-10.79,0,*6B
1509300066.36,25665,9.94,71254.5,-10.01,-10.79,-10.85,0,*61
1509300067.62,25666,9.94,71254.8,-10.01,-10.79,-10.71,0,*69
1509300068.89,25667,9.94,71254.3,-10.01,-10.79,-10.79,0,*60
1509300070.19,25668,9.94,71258.3,-10.03,-10.71,-10.75,0,*69
1509300071.46,25669,9.94,71264.5,-10.01,-10.67,-10.67,0,*6E
1509300072.73,25670,9.94,71270.8,-9.99,-10.67,-10.57,0,*5C
1509300073.98,25671,9.94,71272.3,-10.01,-10.67,-10.57,0,*64
1509300075.23,25672,9.94,71276.5,-10.01,-10.67,-10.57,0,*67
1509300076.47,25673,9.94,71276.5,-10.01,-10.71,-10.57,0,*61
1509300077.72,25674,9.94,71286.8,-10.01,-10.67,-10.57,0,*61
1509300078.97,25675,9.94,71288.8,-10.01,-10.67,-10.57,0,*60
1509300080.26,25676,9.94,71302.8,-9.99,-10.71,-10.67,0,*5E
1509300081.51,25677,9.94,71304.0,-10.01,-10.67,-10.57,0,*62
1509300082.78,25678,9.94,71304.8,-9.99,-10.67,-10.57,0,*54
1509300084.05,25679,9.94,71308.3,-9.99,-10.67,-10.57,0,*55
1509300085.28,25680,9.94,71316.5,-9.99,-10.57,-10.53,0,*54
1509300086.51,25681,9.94,71316.0,-9.99,-10.53,-10.53,0,*51
1509300087.72,25682,9.94,71318.0,-10.01,-10.53,-10.57,0,*6F
1509300088.94,25683,9.94,71316.5,-10.01,-10.57,-10.57,0,*6A
1509300090.17,25684,9.94,71316.3,-9.99,-10.57,-10.57,0,*54
1509300091.41,25685,9.94,71320.5,-9.99,-10.57,-10.57,0,*55
1509300092.62,25686,9.94,71322.5,-10.01,-10.53,-10.57,0,*6B
1509300093.84,25687,9.94,71324.3,-10.01,-10.57,-10.53,0,*6A
1509300095.07,25688,9.94,71328.0,-9.99,-10.53,-10.57,0,*5C
1509300096.3,25689,9.94,71336.8,-9.99,-10.57,-10.57,0,*59
1509300097.53,25690,9.94,71338.0,-9.99,-10.53,-10.57,0,*55
1509300098.77,25691,9.94,71336.3,-9.99,-10.57,-10.57,0,*50
1509300100.0,25692,9.94,71346.0,-9.99,-10.57,-10.53,0,*57
1509300101.24,25693,9.94,71346.3,-9.99,-10.57,-10.53,0,*56
1509300102.45,25694,9.94,71344.0,-10.01,-10.45,-10.53,0,*6B
1509300103.68,25695,9.94,71346.3,-9.99,-10.53,-10.45,0,*53
1509300104.91,25696,9.94,71346.8,-9.99,-10.53,-10.57,0,*53
1509300106.12,25697,9.94,71344.3,-10.01,-10.53,-10.53,0,*6F
1509300107.33,25698,9.94,71346.5,-10.01,-10.53,-10.45,0,*67
1509300108.56,25699,9.94,71342.0,-9.99,-10.53,-10.45,0,*5F
1509300109.79,25700,9.94,71336.8,-9.99,-10.53,-10.45,0,*5E
1509300111.05,25701,9.94,71338.3,-9.99,-10.53,-10.41,0,*5B
1509300112.28,25702,9.94,71334.0,-9.99,-10.53,-10.53,0,*5B
1509300113.51,25703,9.94,71332.5,-9.99,-10.53,-10.53,0,*5A
1509300114.73,25704,9.94,71336.8,-9.99,-10.53,-10.53,0,*5D
1509300115.97,25705,9.94,71336.0,-9.99,-10.57,-10.53,0,*58
1509300117.23,25706,9.94,71344.3,-9.99,-10.41,-10.45,0,*5B
1509300118.46,25707,9.94,71350.0,-9.99,-10.45,-10.45,0,*5E
1509300119.7,25708,9.94,71356.8,-9.97,-10.49,-10.41,0,*57
1509300120.91,25709,9.94,71360.0,-9.97,-10.49,-10.49,0,*5E
1509300122.14,25710,9.94,71362.5,-9.99,-10.53,-10.53,0,*58
1509300123.38,25711,9.94,71370.8,-9.97,-10.41,-10.53,0,*54
1509300124.59,25712,9.94,71376.0,-9.97,-10.49,-10.53,0,*5F
1509300125.82,25713,9.94,71380.3,-9.95,-10.49,-10.49,0,*57
1509300127.05,25714,9.94,71386.3,-9.97,-10.41,-10.53,0,*51
1509300128.32,25715,9.94,71390.0,-9.97,-10.41,-10.41,0,*53
1509300129.53,25716,9.94,71392.5,-9.97,-10.49,-10.49,0,*50
1509300130.74,25717,9.94,71400.8,-9.97,-10.49,-10.49,0,*51
1509300131.95,25718,9.94,71408.0,-9.97,-10.53,-10.49,0,*55
1509300133.21,25719,9.94,71408.5,-9.95,-10.41,-10.49,0,*55
1509300134.45,25720,9.94,71408.3,-9.97,-10.41,-10.49,0,*5D
1509300135.66,25721,9.94,71402.5,-9.97,-10.49,-10.49,0,*54
1509300136.86,25722,9.94,71388.0,-9.97,-10.53,-10.53,0,*57
1509300138.13,25723,9.94,71390.0,-9.97,-10.63,-10.63,0,*56
1509300139.4,25724,9.94,71388.0,-9.97,-10.67,-10.75,0,*52
1509300140.66,25725,9.94,71382.0,-9.97,-10.75,-10.79,0,*5C
1509300141.94,25726,9.94,71378.8,-9.95,-10.79,-10.79,0,*51
1509300143.18,25727,9.94,71366.8,-9.97,-10.85,-10.79,0,*51
1509300144.41,25728,9.94,71348.5,-9.97,-10.85,-10.79,0,*5E
1509300145.65,25729,9.94,71338.5,-9.97,-10.85,-10.79,0,*5F
1509300146.85,25730,9.94,71330.5,-9.97,-10.93,-10.85,0,*53
1509300148.06,25731,9.94,71312.3,-9.97,-10.85,-10.85,0,*55
1509300149.32,25732,9.94,71284.5,-9.97,-10.79,-10.75,0,*5A
1509300150.58,25733,9.94,71242.3,-9.97,-10.79,-10.75,0,*5B
1509300151.85,25734,9.94,71244.3,-9.97,-10.75,-10.75,0,*50
1509300153.11,25735,9.94,71252.5,-9.97,-10.79,-10.79,0,*51
1509300154.32,25736,9.94,71250.5,-9.97,-10.93,-10.93,0,*52
1509300155.54,25737,9.94,71238.8,-9.97,-10.97,-10.97,0,*53
1509300156.78,25738,9.94,71148.5,-9.97,-11.07,-10.97,0,*54
1509300158.02,25739,9.94,71116.0,-9.99,-11.01,-11.01,0,*53
1509300159.25,25740,9.94,71120.8,-9.99,-10.89,-10.89,0,*5D
1509300160.51,25741,9.94,71136.3,-9.99,-10.79,-10.89,0,*53
1509300161.77,25742,9.94,71146.3,-9.97,-10.79,-10.79,0,*51
1509300162.98,25743,9.94,71180.5,-9.97,-10.85,-10.85,0,*50
1509300164.18,25744,9.94,71182.3,-9.97,-10.85,-10.85,0,*57
1509300165.38,25745,9.94,71186.0,-9.97,-10.85,-10.85,0,*56
1509300166.58,25746,9.94,71184.3,-9.97,-10.85,-10.85,0,*55
1509300167.84,25747,9.94,71188.8,-9.97,-10.79,-10.79,0,*54
1509300169.07,25748,9.94,71200.3,-9.99,-10.85,-10.85,0,*55
1509300170.3,25749,9.94,71210.5,-9.99,-10.89,-10.89,0,*54
1509300171.53,25750,9.94,71226.8,-9.99,-10.89,-10.85,0,*50
1509300172.78,25751,9.94,71236.3,-9.99,-10.79,-10.85,0,*5E
1509300174.06,25752,9.94,71240.5,-9.99,-10.79,-10.79,0,*5E
1509300175.27,25753,9.94,71226.3,-10.01,-10.85,-10.85,0,*66
1509300176.51,25754,9.94,71234.3,-9.99,-10.89,-10.89,0,*58
1509300177.75,25755,9.94,71244.8,-10.01,-10.79,-10.89,0,*6F
1509300178.97,25756,9.94,71260.0,-9.99,-10.85,-10.85,0,*5A
1509300180.26,25757,9.94,71270.3,-9.99,-10.79,-10.79,0,*5B
1509300181.52,25758,9.94,71288.0,-9.99,-10.85,-10.79,0,*57
1509300182.8,25759,9.94,71288.8,-9.99,-10.71,-10.79,0,*5D
1509300184.07,25760,9.94,71292.0,-10.01,-10.79,-10.71,0,*6E
1509300185.33,25761,9.94,71294.0,-9.99,-10.85,-10.71,0,*55
1509300186.61,25762,9.94,71298.5,-9.99,-10.71,-10.79,0,*55
1509300187.88,25763,9.94,71308.3,-9.97,-10.75,-10.75,0,*52
1509300189.14,25764,9.94,71316.5,-10.01,-10.79,-10.79,0,*62
1509300190.44,25765,9.94,71322.0,-9.99,-10.67,-10.79,0,*55
1509300191.73,25766,9.94,71326.3,-9.99,-10.67,-10.71,0,*5E
1509300193.0,25767,9.94,71324.3,-10.01,-10.67,-10.71,0,*66
1509300194.24,25768,9.94,71336.5,-9.97,-10.63,-10.53,0,*5A
1509300195.51,25769,9.94,71338.5,-9.97,-10.63,-10.67,0,*5C
1509300196.78,25770,9.94,71324.0,-9.97,-10.67,-10.67,0,*50
1509300198.04,25771,9.94,71318.0,-9.99,-10.85,-10.79,0,*5C
1509300199.33,25772,9.94,71328.8,-9.99,-10.71,-10.67,0,*5B
1509300200.57,25773,9.94,71324.8,-9.99,-10.57,-10.57,0,*5D
1509300201.77,25774,9.94,71328.5,-9.97,-10.53,-10.53,0,*54
1509300202.98,25775,9.94,71332.0,-9.97,-10.53,-10.49,0,*5E
1509300204.19,25776,9.94,71346.0,-9.97,-10.49,-10.49,0,*56
1509300205.4,25777,9.94,71342.3,-9.97,-10.49,-10.49,0,*57
1509300206.61,25778,9.94,71334.0,-9.97,-10.49,-10.49,0,*58
1509300207.85,25779,9.94,71334.5,-9.97,-10.63,-10.53,0,*5A
1509300209.13,25780,9.94,71308.8,-9.95,-10.75,-10.67,0,*5E
1509300210.4,25781,9.94,71300.5,-9.97,-10.79,-10.79,0,*5E
1509300211.68,25782,9.94,71302.0,-9.95,-10.79,-10.79,0,*5F
1509300212.94,25783,9.94,71276.3,-9.97,-10.79,-10.79,0,*5C
1509300214.14,25784,9.94,71270.3,-9.97,-10.85,-10.85,0,*5B
1509300215.35,25785,9.94,71252.3,-9.97,-10.85,-10.85,0,*5A
1509300216.55,25786,9.94,71246.0,-9.97,-10.85,-10.85,0,*59
1509300217.82,25787,9.94,71242.8,-9.97,-10.67,-10.75,0,*5B
1509300219.11,25788,9.94,71246.0,-9.95,-10.67,-10.79,0,*5A
1509300220.37,25789,9.94,71258.5,-9.97,-10.79,-10.79,0,*56
1509300221.6,25790,9.94,71266.0,-9.97,-10.79,-10.85,0,*5D
1509300222.83,25791,9.94,71274.8,-9.97,-10.79,-10.85,0,*5C
1509300224.11,25792,9.94,71272.0,-9.95,-10.79,-10.79,0,*5E
1509300225.34,25793,9.94,71276.0,-9.97,-10.85,-10.79,0,*5E
1509300226.63,25794,9.94,71286.0,-9.95,-10.75,-10.79,0,*54
1509300227.89,25795,9.94,71290.3,-9.97,-10.75,-10.75,0,*5B
1509300229.16,25796,9.94,71294.3,-9.97,-10.75,-10.67,0,*5B
1509300230.43,25797,9.94,71298.8,-9.97,-10.67,-10.63,0,*5D
1509300231.7,25798,9.94,71306.5,-9.97,-10.67,-10.67,0,*56
1509300232.99,25799,9.94,71312.3,-9.95,-10.67,-10.67,0,*55
1509300234.28,25800,9.94,71318.0,-9.95,-10.63,-10.63,0,*5A
1509300235.55,25801,9.94,71318.3,-9.97,-10.67,-10.63,0,*5D
1509300236.82,25802,9.94,71322.8,-9.97,-10.67,-10.63,0,*5E
1509300238.09,25803,9.94,71322.3,-9.97,-10.63,-10.67,0,*5F
1509300239.36,25804,9.94,71320.5,-9.97,-10.67,-10.67,0,*5C
1509300240.63,25805,9.94,71326.0,-9.97,-10.63,-10.67,0,*59
1509300241.92,25806,9.94,71330.3,-9.95,-10.63,-10.67,0,*58
1509300243.22,25807,9.94,71332.5,-9.95,-10.63,-10.67,0,*59
1509300244.48,25808,9.94,71334.3,-9.97,-10.63,-10.63,0,*50
1509300245.75,25809,9.94,71338.8,-9.97,-10.63,-10.63,0,*51
1509300247.02,25810,9.94,71346.8,-9.97,-10.63,-10.63,0,*59
1509300248.3,25811,9.94,71348.0,-9.95,-10.63,-10.63,0,*5A
1509300249.56,25812,9.94,71354.5,-9.95,-10.53,-10.63,0,*5A
1509300250.81,25813,9.94,71368.5,-9.95,-10.53,-10.63,0,*5B
1509300252.08,25814,9.94,71372.0,-9.97,-10.63,-10.63,0,*5D
1509300253.37,25815,9.88,71364.3,-9.95,-10.67,-10.67,0,*5E
1509300254.64,25816,9.94,71366.0,-9.97,-10.63,-10.63,0,*5F
1509300255.9,25817,9.94,71366.5,-9.95,-10.63,-10.49,0,*54
1509300257.13,25818,9.94,71370.3,-9.95,-10.49,-10.53,0,*58
1509300258.35,25819,9.94,71370.8,-9.95,-10.53,-10.53,0,*52
1509300259.58,25820,9.94,71366.8,-9.95,-10.53,-10.53,0,*58
1509300260.81,25821,9.94,71366.3,-9.91,-10.57,-10.57,0,*5D
1509300262.08,25822,9.94,71360.8,-9.91,-10.63,-10.57,0,*59
1509300263.31,25823,9.94,71360.3,-9.97,-10.63,-10.53,0,*5A
1509300264.57,25824,9.94,71378.5,-9.95,-10.63,-10.53,0,*5F
1509300265.83,25825,9.94,71386.0,-9.95,-10.63,-10.53,0,*5E
1509300267.12,25826,9.94,71384.5,-9.95,-10.63,-10.63,0,*5E
1509300268.41,25827,9.94,71384.5,-9.95,-10.67,-10.63,0,*5B
1509300269.68,25828,9.94,71380.8,-9.97,-10.63,-10.63,0,*52
1509300270.93,25829,9.94,71394.0,-9.95,-10.53,-10.63,0,*52
1509300272.18,25830,9.94,71396.3,-9.95,-10.53,-10.63,0,*5A
1509300273.41,25831,9.94,71400.0,-9.95,-10.53,-10.53,0,*58
1509300274.66,25832,9.94,71406.5,-9.95,-10.53,-10.63,0,*58
1509300275.93,25833,9.94,71404.0,-9.97,-10.63,-10.63,0,*58
1509300277.19,25834,9.94,71396.0,-9.95,-10.63,-10.53,0,*5E
1509300278.42,25835,9.94,71388.0,-9.91,-10.49,-10.57,0,*57
1509300279.66,25836,9.94,71380.3,-9.91,-10.49,-10.57,0,*54
1509300280.91,25837,9.94,71386.3,-9.91,-10.49,-10.63,0,*52
1509300282.15,25838,9.94,71386.0,-9.91,-10.57,-10.57,0,*55
1509300283.38,25839,9.94,71380.0,-9.91,-10.57,-10.49,0,*5B
1509300284.62,25840,9.94,71382.3,-9.97,-10.63,-10.49,0,*54
1509300285.89,25841,9.94,71364.5,-9.91,-10.71,-10.57,0,*5F
1509300287.17,25842,9.94,71360.3,-9.91,-10.71,-10.71,0,*58
1509300288.46,25843,9.94,71354.8,-9.91,-10.71,-10.75,0,*5D
1509300289.75,25844,9.94,71344.3,-9.91,-10.63,-10.63,0,*5E
1509300291.03,25845,9.94,71332.3,-9.95,-10.79,-10.75,0,*57
1509300292.31,25846,9.94,71334.8,-9.95,-10.79,-10.79,0,*58
1509300293.6,25847,9.94,71324.8,-9.95,-10.79,-10.75,0,*55
1509300294.88,25848,9.94,71318.0,-9.95,-10.79,-10.79,0,*56
1509300296.17,25849,9.94,71310.0,-9.91,-10.75,-10.75,0,*53
1509300297.45,25850,9.94,71304.3,-9.91,-10.75,-10.75,0,*5B
1509300298.74,25851,9.94,71292.3,-9.95,-10.79,-10.75,0,*52
1509300300.02,25852,9.94,71292.5,-9.95,-10.79,-10.75,0,*51
1509300301.3,25853,9.94,71296.8,-9.95,-10.79,-10.79,0,*5C
1509300302.59,25854,9.94,71308.8,-9.95,-10.79,-10.75,0,*57
1509300303.87,25855,9.94,71316.8,-9.91,-10.75,-10.79,0,*52
1509300305.16,25856,9.94,71332.5,-9.91,-10.75,-10.71,0,*59
1509300306.44,25857,9.94,71348.5,-9.91,-10.75,-10.71,0,*58
1509300307.73,25858,9.94,71360.8,-9.91,-10.75,-10.75,0,*53
1509300309.01,25859,9.94,71372.0,-9.91,-10.71,-10.71,0,*52
1509300310.29,25860,9.94,71388.3,-9.95,-10.75,-10.75,0,*5C
1509300311.58,25861,9.94,71406.8,-9.95,-10.75,-10.75,0,*5D
1509300312.87,25862,9.94,71410.0,-9.95,-10.67,-10.67,0,*5E
1509300314.17,25863,9.94,71412.5,-9.95,-10.67,-10.67,0,*5F
1509300315.43,25864,9.94,71414.0,-9.91,-10.57,-10.63,0,*5B
1509300316.71,25865,9.94,71398.8,-9.91,-10.71,-10.71,0,*5D
1509300318.0,25866,9.94,71394.3,-9.91,-10.75,-10.75,0,*5E
1509300319.29,25867,9.94,71392.5,-9.91,-10.63,-10.71,0,*5C
1509300320.57,25868,9.94,71380.8,-9.91,-10.63,-10.71,0,*53
1509300321.86,25869,9.94,71370.3,-9.91,-10.71,-10.71,0,*51
1509300323.15,25870,9.94,71370.5,-9.91,-10.71,-10.75,0,*5D
1509300324.44,25871,9.94,71366.5,-9.91,-10.71,-10.63,0,*5B
1509300325.72,25872,9.94,71354.5,-9.91,-10.75,-10.75,0,*5B
1509300327.01,25873,9.88,71372.3,-9.91,-10.75,-10.63,0,*5D
1509300328.29,25874,9.94,71380.5,-9.91,-10.71,-10.71,0,*5D
1509300329.58,25875,9.94,71362.5,-9.91,-10.75,-10.75,0,*5C
1509300330.86,25876,9.94,71352.8,-9.91,-10.75,-10.71,0,*5B
1509300332.15,25877,9.94,71348.5,-9.91,-10.71,-10.71,0,*5E
1509300333.43,25878,9.94,71332.5,-9.91,-10.75,-10.75,0,*51
1509300334.69,25879,9.94,71316.8,-9.91,-10.79,-10.89,0,*5F
1509300335.98,25880,9.94,71320.0,-9.91,-10.79,-10.79,0,*56
1509300337.26,25881,9.94,71300.5,-9.91,-10.79,-10.79,0,*57
1509300338.55,25882,9.94,71290.3,-9.91,-10.79,-10.79,0,*54
1509300339.83,25883,9.94,71304.5,-9.91,-10.71,-10.71,0,*55
1509300341.12,25884,9.94,71314.0,-9.91,-10.71,-10.71,0,*52
1509300342.41,25885,9.94,71298.8,-9.91,-10.71,-10.63,0,*50
1509300343.7,25886,9.88,71286.5,-9.91,-10.63,-10.63,0,*50
1509300344.98,25887,9.94,71294.5,-9.91,-10.63,-10.63,0,*51
1509300346.27,25888,9.94,71300.5,-9.91,-10.71,-10.71,0,*5E
1509300347.56,25889,9.94,71310.0,-9.91,-10.71,-10.75,0,*5B
1509300348.82,25890,9.94,71304.0,-9.89,-10.75,-10.71,0,*5A
1509300350.1,25891,9.94,71300.0,-9.91,-10.75,-10.75,0,*56
1509300351.39,25892,9.94,71294.5,-9.91,-10.79,-10.75,0,*59
1509300352.65,25893,9.94,71286.8,-9.91,-10.79,-10.89,0,*5B
1509300353.93,25894,9.94,71286.8,-9.91,-10.79,-10.79,0,*53
1509300355.16,25895,9.88,71280.3,-9.95,-10.93,-10.93,0,*56
1509300356.45,25896,9.94,71278.8,-9.91,-10.79,-10.79,0,*51
1509300357.73,25897,9.94,71268.0,-9.91,-10.79,-10.79,0,*50
1509300359.02,25898,9.94,71248.8,-9.91,-10.79,-10.79,0,*5F
1509300360.3,25899,9.88,71240.8,-9.91,-10.75,-10.75,0,*5E
1509300361.59,25900,9.94,71248.5,-9.91,-10.75,-10.71,0,*5B
1509300362.87,25901,9.94,71258.0,-9.91,-10.75,-10.79,0,*52
1509300364.16,25902,9.94,71264.0,-9.91,-10.79,-10.79,0,*5D
1509300365.39,25903,9.94,71262.8,-9.91,-10.89,-10.93,0,*57
1509300366.63,25904,9.94,71258.5,-9.91,-10.89,-10.97,0,*54
1509300367.91,25905,9.94,71262.5,-9.91,-10.79,-10.79,0,*5A
1509300369.15,25906,9.94,71266.0,-9.97,-10.85,-10.79,0,*5C
1509300370.41,25907,9.94,71278.3,-9.97,-10.79,-10.75,0,*52
1509300371.64,25908,9.94,71280.0,-9.95,-10.85,-10.93,0,*54
1509300372.86,25909,9.94,71290.3,-9.95,-10.85,-10.85,0,*52
1509300374.09,25910,9.94,71306.5,-9.91,-10.89,-10.89,0,*5E
1509300375.38,25911,9.94,71308.8,-9.91,-10.79,-10.79,0,*5F
1509300376.6,25912,9.94,71316.0,-9.95,-10.85,-10.85,0,*58
1509300377.82,25913,9.94,71326.5,-9.95,-10.85,-10.85,0,*59
1509300379.06,25914,9.94,71328.0,-9.95,-10.93,-10.93,0,*5E
1509300380.31,25915,9.94,71330.0,-9.95,-10.79,-10.85,0,*5C
1509300381.54,25916,9.94,71336.0,-9.97,-10.75,-10.85,0,*51
1509300382.79,25917,9.94,71338.0,-9.95,-10.75,-10.85,0,*52
1509300384.07,25918,9.94,71336.8,-9.95,-10.79,-10.79,0,*52
1509300385.35,25919,9.94,71336.5,-9.95,-10.79,-10.79,0,*53
1509300386.62,25920,9.94,71334.8,-9.97,-10.79,-10.79,0,*5B
1509300387.86,25921,9.94,71326.3,-9.95,-10.79,-10.85,0,*5B
1509300389.12,25922,9.94,71324.5,-9.95,-10.79,-10.85,0,*58
1509300390.35,25923,9.94,71320.5,-9.95,-10.93,-10.93,0,*5A
1509300391.59,25924,9.88,71306.0,-9.97,-10.93,-11.07,0,*53
1509300392.8,25925,9.94,71330.3,-9.97,-10.93,-10.93,0,*5E
1509300394.04,25926,9.94,71316.3,-9.95,-10.93,-10.97,0,*5B
1509300395.26,25927,9.94,71322.0,-9.95,-10.85,-10.85,0,*5E
1509300396.49,25928,9.94,71322.3,-9.95,-10.85,-10.93,0,*56
1509300397.71,25929,9.94,71312.0,-9.97,-10.97,-10.93,0,*56
1509300398.93,25930,9.94,71316.8,-9.95,-10.85,-10.85,0,*58
1509300400.15,25931,9.94,71318.5,-9.95,-10.85,-10.85,0,*59
1509300401.41,25932,9.94,71312.8,-9.95,-10.85,-10.79,0,*59
1509300402.67,25933,9.94,71310.8,-9.97,-10.79,-10.79,0,*59
1509300403.96,25934,9.94,71314.8,-9.95,-10.79,-10.79,0,*5C
1509300405.24,25935,9.94,71310.3,-9.95,-10.79,-10.79,0,*5D
1509300406.47,25936,9.94,71310.5,-9.95,-10.93,-10.85,0,*59
1509300407.69,25937,9.94,71312.3,-9.95,-10.85,-10.85,0,*5F
1509300408.91,25938,9.94,71310.8,-9.95,-10.85,-10.85,0,*50
1509300410.17,25939,9.94,71308.8,-9.97,-10.79,-10.75,0,*5F
1509300411.46,25940,9.94,71304.3,-9.95,-10.79,-10.79,0,*5F
1509300412.73,25941,9.88,71302.8,-9.97,-10.67,-10.75,0,*5F
1509300413.95,25942,9.94,71306.5,-9.97,-10.79,-10.85,0,*5C
1509300415.2,25943,9.94,71300.5,-9.95,-10.79,-10.85,0,*5F
1509300416.45,25944,9.94,71304.8,-9.95,-10.79,-10.85,0,*58
1509300417.72,25945,9.94,71308.0,-9.97,-10.75,-10.75,0,*58
1509300419.0,25946,9.94,71308.3,-9.95,-10.75,-10.75,0,*59
1509300420.26,25947,9.94,71312.8,-9.97,-10.75,-10.79,0,*56
1509300421.55,25948,9.94,71312.8,-9.95,-10.75,-10.75,0,*57
1509300422.84,25949,9.94,71316.3,-9.95,-10.67,-10.75,0,*55
1509300424.13,25950,9.94,71316.5,-9.95,-10.67,-10.75,0,*5D
1509300425.39,25951,9.88,71318.5,-9.91,-10.63,-10.57,0,*5C
1509300426.65,25952,9.88,71320.5,-9.91,-10.57,-10.63,0,*5F
1509300427.94,25953,9.94,71326.8,-9.91,-10.63,-10.63,0,*59
1509300429.23,25954,9.94,71328.8,-9.91,-10.63,-10.63,0,*5E
1509300430.49,25955,9.94,71334.8,-9.91,-10.57,-10.63,0,*58
1509300431.76,25956,9.88,71334.3,-9.91,-10.63,-10.57,0,*5B
1509300432.99,25957,9.88,71332.0,-9.91,-10.57,-10.57,0,*5D
1509300434.23,25958,9.88,71336.5,-9.91,-10.57,-10.49,0,*5D
1509300435.52,25959,9.94,71342.0,-9.91,-10.63,-10.63,0,*53
1509300436.78,25960,9.94,71348.3,-9.91,-10.57,-10.63,0,*5E
1509300438.04,25961,9.94,71358.3,-9.91,-10.63,-10.57,0,*5F
1509300439.3,25962,9.94,71364.8,-9.91,-10.57,-10.63,0,*5C
1509300440.54,25963,9.94,71372.0,-9.91,-10.57,-10.57,0,*5A
1509300441.8,25964,9.94,71384.3,-9.91,-10.57,-10.63,0,*5A
1509300443.06,25965,9.94,71384.8,-9.91,-10.57,-10.63,0,*5B
1509300444.32,25966,9.94,71388.3,-9.89,-10.71,-10.71,0,*56
1509300445.6,25967,9.94,71392.3,-9.91,-10.71,-10.71,0,*5E
1509300446.89,25968,9.94,71388.3,-9.91,-10.71,-10.75,0,*55
1509300448.18,25969,9.94,71384.0,-9.91,-10.63,-10.71,0,*53
1509300449.47,25970,9.94,71376.8,-9.91,-10.75,-10.75,0,*58
1509300450.72,25971,9.94,71374.5,-9.89,-10.71,-10.71,0,*50
1509300452.01,25972,9.94,71362.8,-9.91,-10.75,-10.75,0,*5A
1509300453.3,25973,9.94,71356.8,-9.91,-10.75,-10.75,0,*5B
1509300454.59,25974,9.88,71356.8,-9.91,-10.71,-10.75,0,*58
1509300455.87,25975,9.88,71356.5,-9.91,-10.63,-10.71,0,*5E
1509300457.16,25976,9.94,71358.0,-9.91,-10.63,-10.71,0,*5D
1509300458.42,25977,9.94,71358.5,-9.89,-10.63,-10.63,0,*56
1509300459.71,25978,9.88,71356.3,-9.91,-10.71,-10.75,0,*54
1509300460.97,25979,9.88,71352.3,-9.91,-10.57,-10.75,0,*51
1509300462.26,25980,9.94,71352.0,-9.91,-10.63,-10.71,0,*54
1509300463.52,25981,9.88,71346.3,-9.91,-10.63,-10.57,0,*51
1509300464.78,25982,9.94,71338.8,-9.89,-10.71,-10.63,0,*5F
1509300466.07,25983,9.94,71324.3,-9.91,-10.71,-10.63,0,*57
1509300467.33,25984,9.94,71318.5,-9.89,-10.71,-10.63,0,*59
1509300468.62,25985,9.94,71318.5,-9.91,-10.75,-10.71,0,*56
1509300469.88,25986,9.88,71308.5,-9.89,-10.71,-10.75,0,*5C
1509300471.14,25987,9.88,71308.8,-9.89,-10.71,-10.75,0,*5D
1509300472.37,25988,9.94,71300.5,-9.91,-10.89,-10.93,0,*54
1509300473.66,25989,9.88,71286.0,-9.91,-10.79,-10.79,0,*5E
1509300474.94,25990,9.94,71284.5,-9.91,-10.79,-10.79,0,*56
1509300476.23,25991,9.88,71280.0,-9.91,-10.79,-10.79,0,*57
1509300477.51,25992,9.88,71282.5,-9.91,-10.79,-10.79,0,*54
1509300478.8,25993,9.88,71290.5,-9.91,-10.71,-10.71,0,*55
1509300480.08,25994,9.94,71294.8,-9.91,-10.71,-10.71,0,*52
1509300481.37,25995,9.88,71296.5,-9.91,-10.75,-10.75,0,*53
1509300482.66,25996,9.94,71308.5,-9.91,-10.71,-10.75,0,*54
1509300483.95,25997,9.88,71316.0,-9.91,-10.71,-10.71,0,*51
1509300485.2,25998,9.88,71324.3,-9.89,-10.71,-10.71,0,*57
1509300486.46,25999,9.94,71328.8,-9.89,-10.63,-10.71,0,*55
1509300487.72,26000,9.88,71334.5,-9.89,-10.71,-10.71,0,*5C
1509300489.01,26001,9.88,71346.0,-9.91,-10.71,-10.71,0,*54
1509300490.3,26002,9.94,71358.3,-9.91,-10.63,-10.63,0,*57
1509300491.59,26003,9.94,71362.5,-9.91,-10.63,-10.63,0,*56
1509300492.85,26004,9.94,71368.0,-9.89,-10.63,-10.63,0,*58
1509300494.11,26005,9.88,71372.3,-9.91,-10.57,-10.63,0,*57
1509300495.32,26006,9.94,71382.3,-9.89,-10.57,-10.57,0,*5A
1509300496.61,26007,9.94,71384.5,-9.91,-10.63,-10.71,0,*51
1509300497.84,26008,9.88,71384.5,-9.89,-10.63,-10.57,0,*53
1509300499.08,26009,9.94,71388.8,-9.89,-10.57,-10.63,0,*52
1509300500.34,26010,9.94,71382.3,-9.91,-10.57,-10.63,0,*53
1509300501.58,26011,9.94,71386.8,-9.89,-10.57,-10.63,0,*5B
1509300502.78,26012,9.88,71378.8,-9.89,-10.49,-10.57,0,*50
1509300503.99,26013,9.94,71378.0,-9.89,-10.57,-10.49,0,*51
1509300505.26,26014,9.94,71380.8,-9.89,-10.63,-10.63,0,*59
1509300506.49,26015,9.88,71384.0,-9.89,-10.57,-10.71,0,*5C
1509300507.75,26016,9.88,71382.8,-9.89,-10.71,-10.71,0,*5B
1509300509.01,26017,9.94,71374.5,-9.89,-10.71,-10.71,0,*5A
1509300510.27,26018,9.94,71382.8,-9.89,-10.71,-10.71,0,*55